Find Starlink 31323

NORAD ID: 58882 Int'l Des: 2024-020 Owner: SPXS Country: US Constellation: starlink operational
LEOCIRCULAR

当前视图

正在加载3D地球...

About Starlink 31323

Starlink 31323 (NORAD 58882) is a starlink constellation satellite (v2 mini) launched Jan 29, 2024 by SPXS of US. It operates in LEO, CIRCULAR orbit with a mass of 730.00 kg.

关于 Starlink 31323

正在加载描述...

即将过境

Passes for default location (London). Set your location on the main map for personalized predictions.

高度历史

Loading altitude history...

两行轨道根数

1 58882U 24020G 26171.40795293 .00009125 00000-0 28102-3 0 9998
2 58882 53.1593 204.1798 0000828 55.4307 304.6774 15.34383973133815
Epoch: Jun 20, 2026 • Age: 42 hours

当前状态

高度 481.5 km
速度 7.62 km/s
星下点 -52.83°S, 131.32°E
发射日期 Jan 29, 2024
运行时间 2.3 years
类型 internet

技术详情

分类 Payload
质量 730.00 kg
干质量 700.00 kg
总质量 730.00 kg
长度 0.30 m
直径 4.10 m
跨度 29.00 m
形状 Box + pan
制造商 SPXS
平台类型 Starlink V2M
阶段状态 In Orbit
所有者/国家 SPXS/US

Most Searched